Accueil
METAR-TAF:

METAR-TAF

Aéroports :

Holbeach, Angleterre

RAF

latitude: 52-52N, longitude: 000-09E, altitude: 3 m

Observation

Le bulletin a été fait il y a 1 heure et 3 minutes, à 09:50 UTC
Vent 10 kt de ouest/sud-ouest
Température 13°C
Humidité 100%
Pression 993 hPa
Visibilité 10 km ou plus
Nuages fragmentés à une hauteur de 1200 ft

METAR: EGYH 290950Z 25010KT 9999 BKN012 13/13 Q0993 GRN

Heure: 11:53 (10:53 UTC)


TAF: absent

Observations et prévisions météorologiques de plus de 4000 aéroports (messages METAR et TAF).

Les stations disponibles sont représentées par des disques jaunes et rouges sur la carte.

Passer la souris dessus pour voir le nom de la station.

Cliquer dessus pour voir les observations et prévisions météorologiques.

Pour changer de carte: cliquez sur les boutons verts avec une croix noire pour zoomer, sur le bouton vert avec un tiret pour effectuer un zoom arrière, ou sur les flèches vertes pour les cartes adjacentes.


METAR-TAF: